Home > Time Zones > World Clock > Weather > India > Dausa > Past weeks

Flag for India Weather past 2 weeks in Dausa, Rajasthan, India

Now
59 °F

Fog.


Feels Like: 59 °F
Forecast: 55 / 72 °F
Wind: 5 mph from South

Location: Jaipur / Sanganer

Current Time: Mar 2, 2015 at 9:30:41 AM

Latest Report: Mar 2, 2015 at 8:00 AM


Visibility: 2 mi

Pressure: 29.89 "Hg

Humidity: 100%

Dew point: 59 °F

Location of DausaLocation

Historic Weather in Dausa — Graph

°F

Dausa temperature yesterday

Maximum temperature yesterday: 66 °F (at 12:00 AM)
Minimum temperature yesterday: 61 °F (at 5:00 AM)
Average temperature yesterday: 62 °F

Past Weeks' High & Low Weather Summary

 TemperatureHumidityPressure
High95 °F (Feb 23, 7:30 PM)100% (Mar 1, 9:00 AM)30.09 "Hg (Mar 1, 9:00 AM)
Low59 °F (Feb 15, 8:00 AM)11% (Feb 26, 5:00 PM)29.77 "Hg (Feb 25, 4:00 PM)
Average73 °F44%29.93 "Hg
* Reported Feb 15 8:00 AM — Mar 2 8:00 AM, Dausa, Weather by CustomWeather, © 2015

Note: Actual official high and low records may vary slightly from our data, if they occured in-between our weather recording intervals... More about our weather records

Advertising

Dausa weather history for previous 24 hours

 ConditionsComfort  
Time TempWeatherWind HumidityBarometerVisibility
8:00 AM
Mon, Mar 2
59 °FFog.5 mph100%29.89 "Hg1 mi
7:00 AM59 °FFog.7 mph100%29.89 "Hg1 mi
12:00 AM61 °FFog.7 mph100%29.86 "Hg1 mi
11:00 PM
Sun, Mar 1
61 °FFog.8 mph100%29.86 "Hg1 mi
10:00 PM61 °FPartly cloudy.6 mph100%29.86 "Hg1 mi
9:30 PM61 °FPartly cloudy.7 mph100%29.86 "Hg1 mi
8:00 PM61 °FPartly cloudy.6 mph100%29.80 "Hg1 mi
7:30 PM61 °FPartly cloudy.7 mph100%29.80 "Hg1 mi
7:00 PM61 °FPartly cloudy.7 mph100%29.77 "Hg1 mi
6:00 PM61 °FThunderstorms. More clouds than sun.6 mph100%29.80 "Hg1 mi
5:00 PM63 °FThunderstorms. More clouds than sun.7 mph94%29.80 "Hg1 mi
4:30 PM63 °FThunderstorms. More clouds than sun.12 mph100%29.80 "Hg1 mi
3:00 PM66 °FFog.6 mph94%29.77 "Hg1 mi
2:00 PM64 °FThunderstorms. Broken clouds.6 mph100%29.80 "Hg1 mi
1:00 PM64 °FRain. Broken clouds.7 mph100%29.83 "Hg1 mi
10:00 AM63 °FFog.9 mph94%29.86 "Hg1 mi
9:30 AM61 °FFog.7 mph100%29.86 "Hg1 mi
9:00 AM61 °FDrizzle. More clouds than sun.9 mph100%29.86 "Hg1 mi
Weather by CustomWeather, © 2015

See weather overviewHow to use our weather pages